Weather in Krasilovo

Russia / Novgorod Oblast     57°41′18″N   33°19′52″E
temp.,
°C
wind,
m/s
gust,
m/s
humid.,
%
clouds,
%
prec.,
mm/h
press.,
hPa
HPBL,
m
27 september, mon
mon2700:00+8n3895100 0.0 1021481
03:00+7n379694 0.1 1024375
06:00+7nne3795100 0.0 1025426
09:00+8nne3689100 0.0 1026479
12:00+11n477025 0.0 1027973
15:00+11nne4770100 0.1 10271265
18:00+10nne3780100 0.1 1028255
21:00+8nne298899 0.1 1029411
28 september, tue
tue2800:00+6ne279618 0.1 1029213
03:00+7ne2794100 0.1 1030371
06:00+5ne289929 0.0 1031218
09:00+8ene3781100 0.0 1032635
12:00+8e3573100 0.0 1033762
15:00+9e3466100 0.0 1033900
18:00+8e247044 0.0 1034163
21:00+4e22835 0.0 103617
29 september, wed
wed2900:00+3ese118798 0.0 103710
03:00+3ese119052 0.0 103710
06:00+2e00927 0.0 103810
09:00+6ene117753 0.0 1038138
12:00+11ene116087 0.0 1037670
15:00+12ene1154100 0.0 1036924
18:00+8ene1173100 0.0 103610
21:00+5e11816 0.0 103610
30 september, thu
thu3000:00+4se11855 0.0 103710
03:00+4sse11875 0.0 103710
06:00+3sse11885 0.0 103710
09:00+7sse12735 0.0 1037140
12:00+11sse23585 0.0 1036684
15:00+13s23565 0.0 10351008
18:00+9sse22775 0.0 103412
21:00+6s26905 0.0 1035112
1 october, fri
fri100:00+5s26945 0.0 1035121
03:00+4s25965 0.0 1035101
06:00+4s24965 0.0 103591
09:00+7ssw36805 0.0 1035229
12:00+11ssw355547 0.0 1034799
15:00+12ssw344826 0.0 10331049
18:00+8s22705 0.0 103225
21:00+6ssw268137 0.0 103398